[[{"header":{"parameterUnit":"m.s-1","parameterCategory":1,"la1":30.2991,"la2":30.254,"lo1":-89.0895,"lo2":-89.0444,"dy":0.0017,"dx":0.0017,"nx":28,"ny":28,"refTime":"2025-08-03T21:00:00:Z","depth":0,"parameterNumber":2,"parameterNumberName":"U-component_of_WINDS"},"data":[0,0,0,0,0,0,0,0,0,0,0,0,0,0,0,0,0,0,0,0,0,0,0,0,0,0,0,0,0,0,0,0,0,0,0,0,0,0,0,0,0,0,0,0,0,0,0,0,0,0,0,0,0,0,0,0,0,0,-0.3208,-0.3208,0,-0.3178,-0.3178,-0.3177,-0.313,-0.3129,-0.3128,-0.3127,-0.3098,-0.3098,-0.3098,0,0,0,0,0,0,0,0,0,0,0,0,0,-0.3226,-0.3225,-0.3208,-0.3208,-0.3207,-0.3178,-0.3178,-0.3177,-0.313,-0.3129,-0.3128,-0.3127,-0.3098,-0.3098,-0.3098,0,0,0,0,0,0,0,0,0,0,0,0,0,-0.3209,-0.3225,-0.3208,-0.318,-0.3178,-0.3178,-0.3178,-0.3177,-0.313,-0.3129,-0.3128,-0.3126,-0.3098,-0.3098,-0.3098,-0.3124,0,0,-0.3098,-0.3098,0,0,0,0,0,0,0,0,-0.321,-0.3208,-0.3185,-0.3182,-0.3179,-0.3156,-0.3173,-0.316,-0.3131,-0.3148,-0.3127,-0.3126,-0.3119,-0.3117,-0.3114,-0.3123,-0.3122,-0.3098,-0.3098,-0.3098,-0.3098,0,0,0,0,0,0,0,-0.3211,-0.321,-0.3196,-0.3185,-0.3181,-0.3169,-0.3166,-0.317,-0.3141,-0.3147,-0.3143,-0.314,-0.3117,-0.3114,-0.3113,-0.3121,-0.3098,-0.3098,-0.3098,-0.3098,-0.3149,-0.3151,0,0,0,0,0,0,-0.3216,-0.3211,-0.3197,-0.3195,-0.3192,-0.317,-0.3166,-0.3165,-0.3141,-0.3136,-0.3141,-0.3138,-0.3115,-0.3113,-0.3112,-0.3141,-0.3098,-0.3098,-0.3098,-0.3148,-0.315,-0.3151,0,0,0,0,0,0,-0.3217,-0.3216,-0.3198,-0.3202,-0.3199,-0.3171,-0.3171,-0.3165,-0.3162,-0.3137,-0.3132,-0.3144,-0.3114,-0.3112,-0.3121,-0.314,-0.3098,-0.3098,-0.3147,-0.3149,-0.315,-0.32,0,0,0,0,0,0,-0.3218,-0.3216,-0.3226,-0.3203,-0.3199,-0.3209,-0.3172,-0.3165,-0.3162,-0.3158,-0.3138,-0.3133,-0.3113,-0.3122,-0.3121,-0.3139,-0.3099,-0.3145,-0.3147,-0.315,-0.3197,-0.3203,-0.3209,0,0,0,0,0,-0.3218,-0.3241,-0.3227,-0.3225,-0.321,-0.321,-0.3208,-0.3183,-0.3164,-0.3174,-0.3157,-0.3134,-0.3137,-0.3123,-0.3122,-0.314,-0.3144,-0.3147,-0.315,-0.3194,-0.3202,-0.3209,0,0,0,0,0,0,-0.3268,-0.3238,-0.3221,-0.3237,-0.3226,-0.3202,-0.3213,-0.3192,-0.3187,-0.3183,-0.3153,-0.3149,-0.3162,-0.3152,-0.3136,-0.3164,-0.3137,-0.314,-0.3171,-0.3178,-0.3184,-0.3188,-0.3099,0,0,0,0,0,-0.3281,-0.3283,-0.3256,-0.3273,-0.3268,-0.3242,-0.324,-0.3222,-0.321,-0.3205,-0.3189,-0.3178,-0.3177,-0.3176,-0.3174,-0.3194,-0.3189,-0.3206,-0.3212,-0.3217,-0.3221,-0.3231,-0.3238,-0.3161,-0.3161,-0.3161,0,0,-0.3308,-0.3291,-0.3294,-0.3282,-0.3272,-0.3274,-0.3238,-0.3243,-0.3244,-0.3206,-0.3214,-0.3202,-0.3187,-0.3203,-0.3208,-0.3194,-0.3241,-0.3221,-0.3226,-0.3226,-0.3235,-0.3242,-0.3249,-0.3163,-0.3163,-0.3162,0,0,-0.3358,-0.3346,-0.3358,-0.3348,-0.3332,-0.3314,-0.3317,-0.3295,-0.3285,-0.3292,-0.3263,-0.3265,-0.3263,-0.3254,-0.3249,-0.3294,-0.3273,-0.3294,-0.3328,-0.3338,-0.3344,-0.3349,-0.3366,-0.3373,-0.3297,-0.3297,-0.3297,0,-0.3394,-0.3397,-0.3368,-0.3374,-0.3369,-0.3333,-0.3346,-0.3337,-0.3321,-0.3319,-0.3303,-0.3299,-0.3287,-0.33,-0.3311,-0.3308,-0.3311,-0.3297,-0.3345,-0.335,-0.3355,-0.3371,-0.3377,-0.33,-0.33,-0.3299,-0.3299,0,-0.3442,-0.3444,-0.3456,-0.3441,-0.3437,-0.3447,-0.3419,-0.3419,-0.34,-0.3384,-0.3392,-0.3375,-0.3369,-0.337,-0.3352,-0.338,-0.3372,-0.3351,-0.3323,-0.3365,-0.338,-0.3386,-0.3304,-0.3303,-0.3302,-0.3301,0,0,-0.3526,-0.3492,-0.3498,-0.349,-0.3469,-0.347,-0.3477,-0.347,-0.3471,-0.346,-0.3466,-0.3464,-0.3444,-0.3439,-0.3419,-0.3428,-0.3466,-0.3406,-0.3405,-0.3419,-0.3496,-0.3513,-0.3521,-0.345,-0.3451,-0.3452,-0.3498,0,-0.3573,-0.3584,-0.3557,-0.3575,-0.3576,-0.3541,-0.3547,-0.3535,-0.3519,-0.3518,-0.3501,-0.35,-0.3474,-0.347,-0.3477,-0.346,-0.3481,-0.3456,-0.3457,-0.3457,-0.3464,-0.3528,-0.3547,-0.3591,-0.3503,-0.3504,-0.3505,0,-0.363,-0.3622,-0.364,-0.3617,-0.3616,-0.3623,-0.3613,-0.3613,-0.3598,-0.3585,-0.3579,-0.3555,-0.3561,-0.3532,-0.354,-0.3524,-0.3522,-0.3513,-0.3514,-0.3515,-0.3485,-0.3532,-0.3604,-0.3611,-0.3513,-0.3512,-0.3512,0,-0.3692,-0.3684,-0.3694,-0.3689,-0.3661,-0.3667,-0.3656,-0.3639,-0.3636,-0.3628,-0.3625,-0.3618,-0.3614,-0.3609,-0.3584,-0.3566,-0.3595,-0.3565,-0.3586,-0.3587,-0.3596,-0.3596,-0.367,-0.3591,-0.3591,-0.3591,-0.3591,0,-0.3749,-0.3761,-0.3721,-0.3728,-0.374,-0.3709,-0.3722,-0.3708,-0.3693,-0.3696,-0.3664,-0.3667,-0.3633,-0.3633,-0.3613,-0.3622,-0.3621,-0.3612,-0.3607,-0.3616,-0.3617,-0.3616,-0.3613,-0.3593,-0.3593,-0.3592,-0.3592,0,-0.382,-0.3794,-0.3802,-0.3775,-0.3768,-0.3779,-0.3756,-0.3761,-0.3742,-0.3746,-0.3745,-0.3716,-0.3713,-0.3687,-0.3679,-0.3666,-0.3684,-0.3672,-0.3689,-0.3686,-0.371,-0.3708,-0.3787,-0.3796,-0.3711,-0.3711,-0.3712,0,-0.386,-0.3868,-0.3842,-0.3841,-0.3831,-0.383,-0.3827,-0.3795,-0.3793,-0.3775,-0.3782,-0.3777,-0.3771,-0.3769,-0.3748,-0.3741,-0.373,-0.3758,-0.3729,-0.3738,-0.3733,-0.3733,-0.3734,-0.3765,-0.3766,-0.3767,-0.3768,0,-0.3933,-0.3919,-0.3914,-0.3905,-0.3901,-0.3893,-0.3882,-0.3884,-0.3849,-0.3848,-0.3844,-0.384,-0.3831,-0.3827,-0.3816,-0.3805,-0.3781,-0.3776,-0.3781,-0.3792,-0.3802,-0.3798,-0.3708,-0.3776,-0.3775,-0.3774,-0.3774,-0.3773,-0.399,-0.3996,-0.3978,-0.3974,-0.3963,-0.3953,-0.3956,-0.3937,-0.3934,-0.3924,-0.3905,-0.3905,-0.3888,-0.3871,-0.3862,-0.3861,-0.3847,-0.3854,-0.3856,-0.3859,-0.3864,-0.38,-0.3859,-0.3859,-0.3859,-0.3858,-0.3858,0,-0.4063,-0.4049,-0.4046,-0.4031,-0.4028,-0.4004,-0.399,-0.399,-0.399,-0.3976,-0.3971,-0.3967,-0.3962,-0.3939,-0.3932,-0.3936,-0.3924,-0.3935,-0.3935,-0.3933,-0.3877,-0.3874,-0.3944,-0.3944,-0.3944,-0.3944,-0.3944,-0.3944,-0.4101,-0.411,-0.4093,-0.4096,-0.4082,-0.4081,-0.4076,-0.4067,-0.4055,-0.4052,-0.4048,-0.4032,-0.4015,-0.4005,-0.4,-0.3993,-0.3993,-0.4007,-0.3997,-0.3945,-0.3937,-0.3929,-0.3927,-0.4007,-0.4007,-0.4054,-0.4055,-0.4055]},{"header":{"parameterUnit":"m.s-1","parameterCategory":1,"la1":30.2991,"la2":30.254,"lo1":-89.0895,"lo2":-89.0444,"dy":0.0017,"dx":0.0017,"nx":28,"ny":28,"refTime":"2025-08-03T21:00:00:Z","depth":0,"parameterNumber":3,"parameterNumberName":"V-component_of_WINDS"},"data":[0,0,0,0,0,0,0,0,0,0,0,0,0,0,0,0,0,0,0,0,0,0,0,0,0,0,0,0,0,0,0,0,0,0,0,0,0,0,0,0,0,0,0,0,0,0,0,0,0,0,0,0,0,0,0,0,0,0,-2.2622,-2.2622,0,-2.2607,-2.2607,-2.2606,-2.2585,-2.2585,-2.2584,-2.2584,-2.2567,-2.2567,-2.2567,0,0,0,0,0,0,0,0,0,0,0,0,0,-2.2632,-2.2632,-2.2622,-2.2622,-2.2622,-2.2607,-2.2607,-2.2606,-2.2585,-2.2585,-2.2584,-2.2584,-2.2567,-2.2567,-2.2567,0,0,0,0,0,0,0,0,0,0,0,0,0,-2.2624,-2.2632,-2.2622,-2.2609,-2.2608,-2.2607,-2.2607,-2.2606,-2.2585,-2.2585,-2.2584,-2.2584,-2.2568,-2.2567,-2.2567,-2.2577,0,0,-2.2567,-2.2567,0,0,0,0,0,0,0,0,-2.2624,-2.2623,-2.2611,-2.261,-2.2609,-2.2597,-2.2604,-2.2596,-2.2585,-2.2594,-2.2584,-2.2583,-2.2578,-2.2577,-2.2575,-2.2576,-2.2575,-2.2567,-2.2567,-2.2567,-2.2566,0,0,0,0,0,0,0,-2.2625,-2.2624,-2.2616,-2.2611,-2.261,-2.2604,-2.2602,-2.2603,-2.2589,-2.2593,-2.2592,-2.259,-2.2577,-2.2575,-2.2574,-2.2575,-2.2567,-2.2567,-2.2566,-2.2566,-2.2585,-2.2585,0,0,0,0,0,0,-2.2627,-2.2624,-2.2616,-2.2616,-2.2615,-2.2604,-2.2602,-2.2602,-2.2589,-2.2587,-2.2591,-2.2589,-2.2576,-2.2575,-2.2574,-2.2585,-2.2567,-2.2566,-2.2566,-2.2584,-2.2585,-2.2585,0,0,0,0,0,0,-2.2628,-2.2627,-2.2617,-2.262,-2.2618,-2.2605,-2.2604,-2.2602,-2.26,-2.2587,-2.2584,-2.2591,-2.2575,-2.2574,-2.2577,-2.2584,-2.2566,-2.2566,-2.2583,-2.2584,-2.2585,-2.2608,0,0,0,0,0,0,-2.2628,-2.2627,-2.2631,-2.262,-2.2618,-2.262,-2.2604,-2.2602,-2.26,-2.2598,-2.2587,-2.2585,-2.2575,-2.2577,-2.2576,-2.2584,-2.2566,-2.2583,-2.2584,-2.2585,-2.2606,-2.2609,-2.2612,0,0,0,0,0,-2.2628,-2.2637,-2.2631,-2.263,-2.2622,-2.2621,-2.262,-2.2608,-2.26,-2.2604,-2.2596,-2.2585,-2.2583,-2.2577,-2.2577,-2.2584,-2.2582,-2.2583,-2.2585,-2.2605,-2.2609,-2.2612,0,0,0,0,0,0,-2.2649,-2.2636,-2.2629,-2.2634,-2.2629,-2.2617,-2.2622,-2.2612,-2.2609,-2.2607,-2.2593,-2.2591,-2.2595,-2.259,-2.2583,-2.2593,-2.2581,-2.2582,-2.2597,-2.26,-2.2603,-2.2605,-2.2566,0,0,0,0,0,-2.2654,-2.2655,-2.2643,-2.2649,-2.2647,-2.2635,-2.2634,-2.2625,-2.2619,-2.2617,-2.2609,-2.2603,-2.2601,-2.26,-2.2598,-2.2605,-2.2603,-2.261,-2.2613,-2.2615,-2.2616,-2.2621,-2.2624,-2.259,-2.259,-2.259,0,0,-2.2665,-2.2658,-2.2659,-2.2653,-2.2648,-2.2648,-2.2633,-2.2634,-2.2634,-2.2617,-2.2619,-2.2613,-2.2606,-2.2611,-2.2613,-2.2606,-2.2625,-2.2617,-2.2619,-2.2619,-2.2622,-2.2626,-2.2629,-2.259,-2.259,-2.259,0,0,-2.2685,-2.2679,-2.2684,-2.268,-2.2673,-2.2665,-2.2666,-2.2656,-2.2651,-2.2653,-2.2641,-2.2641,-2.2638,-2.2633,-2.2631,-2.265,-2.264,-2.2649,-2.2664,-2.2669,-2.2671,-2.2674,-2.2681,-2.2684,-2.265,-2.2651,-2.2651,0,-2.27,-2.27,-2.2688,-2.269,-2.2688,-2.2673,-2.2678,-2.2674,-2.2666,-2.2665,-2.2658,-2.2655,-2.2648,-2.2653,-2.2658,-2.2656,-2.2657,-2.2651,-2.2672,-2.2674,-2.2676,-2.2683,-2.2686,-2.2652,-2.2652,-2.2652,-2.2651,0,-2.2719,-2.2719,-2.2724,-2.2718,-2.2716,-2.272,-2.2708,-2.2708,-2.27,-2.2693,-2.2695,-2.2687,-2.2684,-2.2684,-2.2676,-2.2687,-2.2684,-2.2675,-2.2662,-2.2681,-2.2688,-2.269,-2.2654,-2.2653,-2.2653,-2.2652,0,0,-2.2752,-2.2739,-2.2741,-2.2738,-2.2729,-2.2729,-2.2732,-2.2729,-2.273,-2.2725,-2.2727,-2.2725,-2.2717,-2.2714,-2.2705,-2.2709,-2.2726,-2.2699,-2.2699,-2.2705,-2.2739,-2.2747,-2.2751,-2.2719,-2.2719,-2.272,-2.274,0,-2.2771,-2.2776,-2.2765,-2.2772,-2.2773,-2.2759,-2.2761,-2.2756,-2.275,-2.2749,-2.2742,-2.2741,-2.2729,-2.2728,-2.2731,-2.2723,-2.2733,-2.2721,-2.2722,-2.2722,-2.2725,-2.2754,-2.2762,-2.2782,-2.2743,-2.2743,-2.2743,0,-2.2794,-2.2791,-2.2799,-2.279,-2.279,-2.2793,-2.2789,-2.2789,-2.2783,-2.2778,-2.2775,-2.2765,-2.2767,-2.2755,-2.2759,-2.2751,-2.2751,-2.2747,-2.2747,-2.2748,-2.2734,-2.2756,-2.2788,-2.2791,-2.2747,-2.2747,-2.2747,0,-2.2818,-2.2816,-2.2821,-2.2819,-2.2808,-2.2811,-2.2807,-2.28,-2.2799,-2.2796,-2.2795,-2.2792,-2.279,-2.2788,-2.2778,-2.277,-2.2783,-2.277,-2.2779,-2.278,-2.2783,-2.2783,-2.2817,-2.2782,-2.2781,-2.2781,-2.2781,0,-2.2842,-2.2847,-2.2832,-2.2835,-2.2841,-2.2828,-2.2834,-2.2829,-2.2823,-2.2825,-2.2811,-2.2813,-2.2799,-2.2799,-2.2791,-2.2795,-2.2794,-2.2791,-2.2789,-2.2793,-2.2793,-2.2793,-2.2791,-2.2782,-2.2782,-2.2782,-2.2782,0,-2.287,-2.286,-2.2865,-2.2855,-2.2852,-2.2857,-2.2849,-2.2851,-2.2844,-2.2846,-2.2846,-2.2834,-2.2834,-2.2823,-2.282,-2.2815,-2.2823,-2.2818,-2.2826,-2.2824,-2.2835,-2.2835,-2.287,-2.2874,-2.2835,-2.2836,-2.2836,0,-2.2886,-2.289,-2.2881,-2.2881,-2.2878,-2.2878,-2.2878,-2.2865,-2.2865,-2.2859,-2.2862,-2.2861,-2.2859,-2.2859,-2.2851,-2.2849,-2.2844,-2.2856,-2.2844,-2.2848,-2.2845,-2.2846,-2.2847,-2.2859,-2.286,-2.286,-2.2861,0,-2.2916,-2.2911,-2.291,-2.2908,-2.2907,-2.2905,-2.2901,-2.2902,-2.2889,-2.2889,-2.2889,-2.2888,-2.2885,-2.2885,-2.2881,-2.2877,-2.2867,-2.2865,-2.2867,-2.2871,-2.2876,-2.2875,-2.2834,-2.2864,-2.2864,-2.2863,-2.2863,-2.2863,-2.2939,-2.2943,-2.2937,-2.2937,-2.2933,-2.293,-2.2932,-2.2925,-2.2925,-2.2923,-2.2915,-2.2916,-2.2911,-2.2905,-2.2902,-2.2903,-2.2896,-2.2899,-2.29,-2.2902,-2.2904,-2.2875,-2.2902,-2.2902,-2.2901,-2.2901,-2.2901,0,-2.2969,-2.2965,-2.2965,-2.2961,-2.2961,-2.2951,-2.2947,-2.2948,-2.2949,-2.2945,-2.2944,-2.2944,-2.2943,-2.2935,-2.2933,-2.2936,-2.2931,-2.2936,-2.2936,-2.2935,-2.2909,-2.2908,-2.294,-2.294,-2.2939,-2.2939,-2.2939,-2.2939,-2.2985,-2.299,-2.2985,-2.2988,-2.2984,-2.2985,-2.2984,-2.2981,-2.2978,-2.2979,-2.2978,-2.2973,-2.2967,-2.2965,-2.2964,-2.2961,-2.2962,-2.2968,-2.2964,-2.2941,-2.2937,-2.2933,-2.2932,-2.2968,-2.2968,-2.299,-2.2991,-2.2991]}]]